Retour au catalogue

QIANFAN-168

ActifCommunicationsPO
NORAD 69385·PAYLOAD·🇨🇳 China

Lancé Jun 4, 2026 depuis Taiyuan Satellite Launch Center

Loading…

Prochains Passages (prochaines 24 heures)

TLE

FraisSource: Space-Track

Époque: Sep 14, 2026, 12:58 UTC

1 69385U 26124D   26257.54047057  .00000126  00000-0  17622-3 0  9990
2 69385  89.0061 352.6181 0001620 104.4009 255.7323 13.51019287 14100

Suivez QIANFAN-168 en temps réel avec AllMySat

Download on the App Store